Weather History for Texarkana, AR

Change the Weather History Date:

Sunday, May 26, 2013

  Actual Average Record
Temperature  
Mean Temperature 76 °F 74 °F  
Max Temperature 85 °F 85 °F 96 °F (1898)
Min Temperature 66 °F 64 °F 43 °F (1925)
Degree Days  
Heating Degree Days 0 0  
Month to date heating degree days 51 12  
Since 1 July heating degree days 2550 2615  
Cooling Degree Days 11 9  
Month to date cooling degree days 144 172  
Year to date cooling degree days 226 269  
Growing Degree Days 24 (Base 50)    
Moisture  
Dew Point 67 °F    
Average Humidity 79    
Maximum Humidity 100    
Minimum Humidity 58    
Precipitation  
Precipitation 0.18 in 0.15 in 2.37 in (1976)
Month to date precipitation 2.76 4.37  
Year to date precipitation 13.58 19.90  
Snow  
Snow 0.00 in - - ()
Month to date snowfall 0.0  
Since 1 July snowfall 2.1  
Snow Depth 0.00 in    
Sea Level Pressure  
Sea Level Pressure 30.09 in    
Wind  
Wind Speed 5 mph (South)    
Max Wind Speed 24 mph    
Max Gust Speed 31 mph    
Visibility 8 miles    
Events Rain    
T = Trace of Precipitation, MM = Missing Value Source: NWS Daily Summary

Daily Weather History Graph

Daily Weather History Graph

Search for Another Location

Airport:

Trip Planner

Search our weather history database for the weather conditions in past years. The results will help you decide how hot, cold, wet, or windy it might be!

Date:

Astronomy

May. 26, 2013 Rise Set
Actual Time 6:09 AM CDT 8:17 PM CDT
Civil Twilight 5:41 AM CDT 8:45 PM CDT
Nautical Twilight 5:06 AM CDT 9:19 PM CDT
Astronomical Twilight 4:29 AM CDT 9:56 PM CDT
Moon 10:06 PM CDT 7:38 AM CDT
Length of Visible Light 15h 04m
Length of Day
14h 08m
Waning Gibbous, 96% of the Moon is Illuminated
May 26
Waning Gibbous
May 31
Last Quarter
Jun 8
New
Jun 16
First Quarter
Jun 23
Full

Hourly Weather History & Observations

Time (CDT) Temp. Heat Index Dew Point Humidity Pressure Visibility Wind Dir Wind Speed Gust Speed Precip Events Conditions
12:53 AM 66.9 °F - 66.0 °F 97% 30.09 in 7.0 mi ESE 3.5 mph - N/A   Clear
1:53 AM 66.9 °F - 66.0 °F 97% 30.09 in 5.0 mi Calm Calm - N/A   Clear
2:53 AM 66.9 °F - 66.0 °F 97% 30.10 in 5.0 mi ESE 3.5 mph - N/A   Clear
3:53 AM 66.9 °F - 66.0 °F 97% 30.11 in 5.0 mi Calm Calm - N/A   Partly Cloudy
4:53 AM 66.9 °F - 64.9 °F 93% 30.11 in 7.0 mi SE 3.5 mph - N/A   Partly Cloudy
5:53 AM 66.9 °F - 66.0 °F 97% 30.10 in 7.0 mi Calm Calm - N/A   Clear
6:53 AM 69.1 °F - 66.0 °F 90% 30.11 in 9.0 mi South 3.5 mph - N/A   Clear
7:53 AM 70.0 °F - 66.9 °F 90% 30.11 in 7.0 mi Calm Calm - N/A   Clear
8:53 AM 73.9 °F - 68.0 °F 82% 30.13 in 10.0 mi South 6.9 mph - N/A   Clear
9:53 AM 77.0 °F - 69.1 °F 76% 30.13 in 10.0 mi SSW 6.9 mph - N/A   Clear
10:53 AM 78.1 °F - 69.1 °F 74% 30.13 in 10.0 mi SSW 6.9 mph - N/A   Partly Cloudy
11:53 AM 82.0 °F 85.5 °F 69.1 °F 65% 30.12 in 10.0 mi South 9.2 mph - N/A   Clear
12:53 PM 82.9 °F 85.4 °F 66.9 °F 58% 30.12 in 10.0 mi South 10.4 mph - N/A   Partly Cloudy
1:53 PM 82.9 °F 85.0 °F 66.0 °F 56% 30.11 in 10.0 mi South 4.6 mph - N/A   Scattered Clouds
2:53 PM 81.0 °F 83.0 °F 66.0 °F 60% 30.09 in 10.0 mi SSW 9.2 mph - N/A   Mostly Cloudy
3:07 PM 71.6 °F - 66.2 °F 83% 30.12 in 1.8 mi West 18.4 mph 28.8 mph 0.11 in Rain Heavy Rain
3:10 PM 71.6 °F - 66.2 °F 83% 30.12 in 1.2 mi West 15.0 mph 27.6 mph 0.14 in Rain Heavy Rain
3:18 PM 71.6 °F - 66.2 °F 83% 30.12 in 2.0 mi West 8.1 mph 21.9 mph 0.18 in Rain Rain
3:27 PM 71.6 °F - 66.2 °F 83% 30.11 in 7.0 mi West 3.5 mph - 0.18 in Rain Light Rain
3:53 PM 73.0 °F - 68.0 °F 84% 30.08 in 10.0 mi Calm Calm - 0.18 in   Mostly Cloudy
4:53 PM 75.0 °F - 68.0 °F 79% 30.05 in 10.0 mi South 4.6 mph - 0.00 in   Mostly Cloudy
5:53 PM 79.0 °F - 68.0 °F 69% 30.04 in 10.0 mi South 6.9 mph - 0.00 in   Scattered Clouds
6:53 PM 77.0 °F - 69.1 °F 76% 30.03 in 10.0 mi SE 6.9 mph - N/A   Overcast
7:53 PM 75.9 °F - 69.1 °F 79% 30.03 in 10.0 mi ESE 3.5 mph - N/A   Overcast
8:53 PM 73.9 °F - 69.1 °F 85% 30.02 in 10.0 mi ESE 5.8 mph - N/A   Clear
9:53 PM 73.0 °F - 69.1 °F 87% 30.03 in 9.0 mi SE 4.6 mph - N/A   Clear
10:53 PM 72.0 °F - 69.1 °F 91% 30.04 in 10.0 mi SE 6.9 mph - N/A   Partly Cloudy
11:53 PM 73.0 °F - 66.9 °F 81% 30.04 in 10.0 mi SSE 8.1 mph - N/A   Clear